Location: Praha
(50.0830°N, 14.4670°E)
Time: 03:33:54
(UTC+01:00)

ISS - Pass Details

Date: 25 February 2021
Orbit: 417 x 422 km, 51.6° (Epoch: 03 March)

Event Time Altitude Azimuth Distance (km) Brightness Sun altitude
Exits shadow 04:50:09 33° 165° (SSE) 721 -2.6 -20.5°
Maximum altitude 04:50:32 34° 149° (SSE) 702 -2.5 -20.4°
Drops below altitude 10° 04:53:38 10° 82° (E) 1,498 0.3 -19.9°
Sets 04:55:50 0° 73° (ENE) 2,366 1.7 -19.6°
